Weather History for Colby, KS

Change the Weather History Date:

Sunday, November 18, 2012

  Actual Average (KGLD) Record (KGLD)
Temperature  
Mean Temperature 42 °F 38 °F  
Max Temperature 55 °F 51 °F 77 °F (1995)
Min Temperature 28 °F 25 °F 11 °F (1937)
Degree Days  
Heating Degree Days 24 27  
Month to date heating degree days 416  
Since 1 July heating degree days 956  
Cooling Degree Days 0 0  
Month to date cooling degree days 0  
Year to date cooling degree days 941  
Moisture  
Dew Point 35 °F    
Average Humidity 83    
Maximum Humidity 100    
Minimum Humidity 58    
Precipitation  
Precipitation 0.00 in 0.02 in 0.44 in (2004)
Month to date precipitation 0.48  
Year to date precipitation 18.97  
Snow  
Snow - 0.10 in - ()
Month to date snowfall 2.5  
Since 1 July snowfall 5.1  
Since 1 September snowfall 5.1  
Snow Depth -    
Sea Level Pressure  
Sea Level Pressure 29.98 in    
Wind  
Wind Speed 5 mph ()    
Max Wind Speed 10 mph    
Max Gust Speed -    
Visibility 9.1 miles    
Events Fog    
T = Trace of Precipitation, MM = Missing Value Source: Averaged Metar Reports

Daily Weather History Graph

Daily Weather History Graph

Search for Another Location

Airport:

Trip Planner

Search our weather history database for the weather conditions in past years. The results will help you decide how hot, cold, wet, or windy it might be!

Date:

Astronomy

Nov. 18, 2012 Rise Set
Actual Time 7:32 AM CST 5:26 PM CST
Civil Twilight 7:03 AM CST 5:55 PM CST
Nautical Twilight 6:30 AM CST 6:28 PM CST
Astronomical Twilight 5:58 AM CST 7:00 PM CST
Moon 12:00 PM CST (11/18) 10:48 PM CST (11/18)
Length of Visible Light 10h 52m
Length of Day
9h 54m
Waxing Crescent, 30% of the Moon is Illuminated
Nov 18
Waxing Crescent
Nov 20
First Quarter
Nov 28
Full
Dec 6
Last Quarter
Dec 13
New

Hourly Weather History & Observations

Time (CST) Temp. Windchill Dew Point Humidity Pressure Visibility Wind Dir Wind Speed Gust Speed Precip Events Conditions
12:15 AM 35.6 °F 30.7 °F 30.2 °F 81% 30.05 in 10.0 mi South 5.8 mph - N/A   Clear
12:35 AM 33.8 °F 28.6 °F 28.4 °F 81% 30.04 in 10.0 mi South 5.8 mph - N/A   Clear
12:55 AM 37.4 °F 32.8 °F 30.2 °F 75% 30.04 in 10.0 mi South 5.8 mph - N/A   Clear
1:15 AM 37.4 °F 32.8 °F 32.0 °F 81% 30.03 in 10.0 mi SSW 5.8 mph - N/A   Clear
1:35 AM 37.4 °F 31.4 °F 33.8 °F 87% 30.03 in 10.0 mi South 8.1 mph - N/A   Clear
1:55 AM 41.0 °F 37.1 °F 35.6 °F 81% 30.02 in 10.0 mi SSW 5.8 mph - N/A   Clear
2:15 AM 37.4 °F 32.8 °F 33.8 °F 87% 30.02 in 10.0 mi SSW 5.8 mph - N/A   Clear
2:35 AM 39.2 °F 35.9 °F 35.6 °F 87% 30.02 in 10.0 mi South 4.6 mph - N/A   Clear
2:55 AM 39.2 °F 35.0 °F 35.6 °F 87% 30.02 in 10.0 mi SSW 5.8 mph - N/A   Clear
3:15 AM 37.4 °F 32.8 °F 33.8 °F 87% 30.01 in 10.0 mi SSW 5.8 mph - N/A   Clear
3:35 AM 35.6 °F 30.7 °F 33.8 °F 93% 30.00 in 10.0 mi SSW 5.8 mph - N/A   Clear
3:55 AM 33.8 °F 28.6 °F 33.8 °F 100% 29.99 in 10.0 mi South 5.8 mph - N/A   Clear
4:15 AM 33.8 °F 30.8 °F 32.0 °F 93% 29.99 in 10.0 mi SSW 3.5 mph - N/A   Clear
4:35 AM 33.8 °F - 33.8 °F 100% 29.98 in 10.0 mi Calm Calm - N/A   Clear
4:55 AM 35.6 °F - 35.6 °F 100% 29.98 in 10.0 mi Calm Calm - N/A   Clear
5:15 AM 35.6 °F 31.7 °F 35.6 °F 100% 29.98 in 10.0 mi SE 4.6 mph - N/A   Clear
5:35 AM 33.8 °F 27.7 °F 33.8 °F 100% 29.97 in 5.0 mi SE 6.9 mph - N/A   Clear
5:55 AM 32.0 °F - 32.0 °F 100% 29.98 in 5.0 mi Calm Calm - N/A   Clear
6:15 AM 33.8 °F 27.7 °F 33.8 °F 100% 29.98 in 7.0 mi SSE 6.9 mph - N/A   Clear
6:35 AM 33.8 °F - 33.8 °F 100% 29.98 in 7.0 mi Calm Calm - N/A   Clear
6:55 AM 33.8 °F - 33.8 °F 100% 29.98 in 7.0 mi Calm Calm - N/A   Clear
7:15 AM 32.0 °F 26.4 °F 32.0 °F 100% 29.98 in 3.0 mi ESE 5.8 mph - N/A   Clear
7:35 AM 30.2 °F 23.4 °F 30.2 °F 100% 29.98 in 0.2 mi ESE 6.9 mph - N/A Fog Light Freezing Fog
7:55 AM 28.4 °F 21.2 °F 28.4 °F 100% 29.98 in 2.5 mi SSE 6.9 mph - N/A   Scattered Clouds
8:15 AM 32.0 °F - 32.0 °F 100% 29.97 in 2.5 mi Calm Calm - N/A   Clear
8:35 AM 32.0 °F - 32.0 °F 100% 29.96 in 2.5 mi Calm Calm - N/A   Clear
8:55 AM 33.8 °F - 33.8 °F 100% 29.97 in 7.0 mi Calm Calm - N/A   Clear
9:15 AM 35.6 °F - 35.6 °F 100% 29.97 in 10.0 mi Calm Calm - N/A   Clear
9:35 AM 37.4 °F - 37.4 °F 100% 29.97 in 10.0 mi Calm Calm - N/A   Clear
9:55 AM 39.2 °F 35.9 °F 37.4 °F 93% 29.97 in 10.0 mi SE 4.6 mph - N/A   Clear
10:15 AM 41.0 °F - 39.2 °F 93% 29.97 in 10.0 mi Calm Calm - N/A   Mostly Cloudy
10:35 AM 42.8 °F 41.1 °F 39.2 °F 87% 29.97 in 10.0 mi South 3.5 mph - N/A   Overcast
10:55 AM 42.8 °F 39.3 °F 41.0 °F 93% 29.98 in 10.0 mi SSE 5.8 mph - N/A   Overcast
11:15 AM 44.6 °F 43.1 °F 41.0 °F 87% 29.97 in 10.0 mi SSW 3.5 mph - N/A   Overcast
11:35 AM 44.6 °F 43.1 °F 41.0 °F 87% 29.97 in 10.0 mi SSW 3.5 mph - N/A   Scattered Clouds
11:55 AM 46.4 °F 43.5 °F 41.0 °F 81% 29.96 in 10.0 mi SSE 5.8 mph - N/A   Clear
12:15 PM 46.4 °F 42.9 °F 41.0 °F 81% 29.94 in 10.0 mi SSE 6.9 mph - N/A   Clear
12:35 PM 50.0 °F - 41.0 °F 71% 29.94 in 10.0 mi SSE 6.9 mph - N/A   Clear
12:55 PM 51.8 °F - 41.0 °F 67% 29.93 in 10.0 mi South 6.9 mph - N/A   Clear
1:15 PM 51.8 °F - 41.0 °F 67% 29.93 in 10.0 mi South 5.8 mph - N/A   Clear
1:35 PM 51.8 °F - 41.0 °F 67% 29.93 in 10.0 mi WSW 6.9 mph - N/A   Clear
1:55 PM 53.6 °F - 41.0 °F 62% 29.93 in 10.0 mi West 8.1 mph - N/A   Clear
2:15 PM 51.8 °F - 41.0 °F 67% 29.93 in 10.0 mi WSW 4.6 mph - N/A   Clear
2:35 PM 51.8 °F - 41.0 °F 67% 29.92 in 10.0 mi WSW 5.8 mph - N/A   Clear
2:55 PM 53.6 °F - 41.0 °F 62% 29.91 in 10.0 mi West 4.6 mph - N/A   Clear
3:15 PM 53.6 °F - 41.0 °F 62% 29.93 in 10.0 mi West 4.6 mph - N/A   Clear
3:35 PM 55.4 °F - 41.0 °F 58% 29.93 in 10.0 mi West 5.8 mph - N/A   Clear
3:55 PM 55.4 °F - 41.0 °F 58% 29.94 in 10.0 mi West 6.9 mph - N/A   Clear
4:15 PM 55.4 °F - 41.0 °F 58% 29.95 in 10.0 mi WSW 4.6 mph - N/A   Clear
4:35 PM 55.4 °F - 41.0 °F 58% 29.95 in 10.0 mi West 5.8 mph - N/A   Clear
4:55 PM 53.6 °F - 39.2 °F 58% 29.95 in 10.0 mi West 4.6 mph - N/A   Clear
5:15 PM 51.8 °F - 37.4 °F 58% 29.95 in 10.0 mi West 4.6 mph - N/A   Clear
5:35 PM 46.4 °F 43.5 °F 35.6 °F 66% 29.96 in 10.0 mi WSW 5.8 mph - N/A   Clear
5:55 PM 46.4 °F - 35.6 °F 66% 29.96 in 10.0 mi Calm Calm - N/A   Clear
6:15 PM 46.4 °F 45.2 °F 35.6 °F 66% 29.97 in 10.0 mi WSW 3.5 mph - N/A   Clear
6:35 PM 42.8 °F 38.6 °F 33.8 °F 70% 29.98 in 10.0 mi WSW 6.9 mph - N/A   Clear
6:55 PM 41.0 °F 38.0 °F 32.0 °F 70% 29.98 in 10.0 mi SW 4.6 mph - N/A   Clear
7:15 PM 41.0 °F 36.4 °F 32.0 °F 70% 29.99 in 10.0 mi WSW 6.9 mph - N/A   Clear
7:35 PM 37.4 °F 31.4 °F 32.0 °F 81% 30.00 in 10.0 mi SW 8.1 mph - N/A   Clear
7:55 PM 37.4 °F 31.4 °F 32.0 °F 81% 30.00 in 10.0 mi SW 8.1 mph - N/A   Clear
8:15 PM 37.4 °F 32.8 °F 32.0 °F 81% 30.00 in 10.0 mi WSW 5.8 mph - N/A   Clear
8:35 PM 37.4 °F 32.8 °F 32.0 °F 81% 30.00 in 10.0 mi WSW 5.8 mph - N/A   Clear
8:55 PM 37.4 °F 32.8 °F 32.0 °F 81% 30.00 in 10.0 mi WSW 5.8 mph - N/A   Clear
9:15 PM 35.6 °F 30.7 °F 32.0 °F 87% 30.01 in 10.0 mi WSW 5.8 mph - N/A   Clear
9:35 PM 35.6 °F 29.2 °F 32.0 °F 87% 30.02 in 10.0 mi West 8.1 mph - N/A   Clear
9:55 PM 35.6 °F 29.2 °F 32.0 °F 87% 30.02 in 10.0 mi WSW 8.1 mph - N/A   Clear
10:15 PM 33.8 °F 25.8 °F 30.2 °F 87% 30.02 in 10.0 mi WSW 10.4 mph - N/A   Clear
10:35 PM 33.8 °F 26.4 °F 32.0 °F 93% 30.02 in 10.0 mi West 9.2 mph - N/A   Clear
10:55 PM 35.6 °F 28.0 °F 32.0 °F 87% 30.02 in 10.0 mi WSW 10.4 mph - N/A   Clear
11:15 PM 35.6 °F 28.6 °F 32.0 °F 87% 30.02 in 10.0 mi WSW 9.2 mph - N/A   Clear
11:35 PM 37.4 °F 30.8 °F 32.0 °F 81% 30.02 in 10.0 mi West 9.2 mph - N/A   Clear
11:55 PM 35.6 °F 29.2 °F 32.0 °F 87% 30.02 in 10.0 mi West 8.1 mph - N/A   Clear